Tracking 35035 objects as of 16-Aug-2026
HD Live streaming from Space Station
objects crossing your sky now

STARLINK-30224

Track STARLINK-30224 now!
10-day predictions
STARLINK-30224 is classified as:


NORAD ID: 57416
Int'l Code: 2023-102N
Launch date: July 20, 2023
Source: United States (US)
Launch site: AIR FORCE WESTERN TEST RANGE (AFWTR)
Your satellite tracking list
Your tracking list is empty




NASA's NSSDC Master Catalog

Two Line Element Set (TLE):
1 57416U 23102N   26228.25002315  .00024818  00000-0  66935-3 0  9994
2 57416  43.0008  66.9448 0001713 262.3656 278.3568 15.37325275  5856
Source of the keplerian elements: AFSPC